TimeEDT,TemperatureF,Dew PointF,Humidity,Sea Level PressureIn,VisibilityMPH,Wind Direction,Wind SpeedMPH,Gust SpeedMPH,PrecipitationIn,Events,Conditions,WindDirDegrees,DateUTC
12:53 AM,57.9,48.0,70,29.78,10.0,North,9.2,18.4,N/A,,Scattered Clouds,350,2012-10-28 04:53:00
1:53 AM,57.9,46.9,67,29.76,10.0,North,12.7,18.4,N/A,,Partly Cloudy,10,2012-10-28 05:53:00
2:53 AM,57.0,46.0,67,29.73,10.0,North,11.5,-,N/A,,Clear,360,2012-10-28 06:53:00
3:53 AM,57.0,46.0,67,29.72,10.0,North,9.2,-,N/A,,Clear,350,2012-10-28 07:53:00
4:53 AM,55.9,45.0,67,29.72,10.0,North,9.2,-,N/A,,Clear,350,2012-10-28 08:53:00
5:53 AM,55.9,45.0,67,29.73,10.0,North,6.9,-,N/A,,Clear,350,2012-10-28 09:53:00
6:53 AM,55.9,45.0,67,29.74,10.0,NNW,9.2,-,N/A,,Clear,340,2012-10-28 10:53:00
7:53 AM,55.0,45.0,69,29.75,10.0,NNW,6.9,-,N/A,,Clear,340,2012-10-28 11:53:00
8:53 AM,55.9,45.0,67,29.75,10.0,North,9.2,-,N/A,,Clear,350,2012-10-28 12:53:00
9:53 AM,61.0,45.0,56,29.74,10.0,NNW,10.4,-,N/A,,Clear,340,2012-10-28 13:53:00
10:53 AM,64.9,45.0,48,29.73,10.0,NNW,8.1,-,N/A,,Clear,340,2012-10-28 14:53:00
11:53 AM,68.0,45.0,43,29.73,10.0,NNE,4.6,-,N/A,,Scattered Clouds,20,2012-10-28 15:53:00
12:53 PM,71.1,45.0,39,29.70,10.0,ENE,9.2,-,N/A,,Scattered Clouds,60,2012-10-28 16:53:00
1:53 PM,70.0,45.0,41,29.68,10.0,WNW,4.6,-,N/A,,Overcast,290,2012-10-28 17:53:00
2:53 PM,66.9,45.0,45,29.67,10.0,NNW,11.5,-,N/A,,Overcast,340,2012-10-28 18:53:00
3:53 PM,57.9,48.9,72,29.69,7.0,North,11.5,-,0.01,Rain,Light Rain,350,2012-10-28 19:53:00
4:53 PM,55.0,46.0,72,29.70,10.0,North,13.8,20.7,0.00,Rain,Light Rain,350,2012-10-28 20:53:00
5:53 PM,54.0,43.0,66,29.71,10.0,North,15.0,-,N/A,,Overcast,350,2012-10-28 21:53:00
6:53 PM,53.1,41.0,64,29.71,10.0,NNW,16.1,20.7,N/A,,Overcast,340,2012-10-28 22:53:00
7:53 PM,52.0,39.0,61,29.73,10.0,NNW,12.7,24.2,N/A,,Overcast,340,2012-10-28 23:53:00
8:53 PM,51.1,34.0,52,29.74,10.0,NNW,16.1,24.2,N/A,,Clear,340,2012-10-29 00:53:00
9:53 PM,50.0,33.1,52,29.74,10.0,NNW,13.8,20.7,N/A,,Partly Cloudy,330,2012-10-29 01:53:00
10:53 PM,50.0,33.1,52,29.74,10.0,North,16.1,20.7,N/A,,Clear,350,2012-10-29 02:53:00
11:53 PM,48.9,32.0,52,29.74,10.0,NNW,16.1,23.0,N/A,,Clear,340,2012-10-29 03:53:00